Hanford, WA
on Monday, January 28, 2013

Monday
Previous Day Next Day
Daily Summary
 ActualAverage (KMWH)Record (KMWH)
Temperature
Mean Temperature °F 32°F  
Max Temperature 34°F 38°F 55°F (1984)
Min Temperature 25°F 25°F -4°F (1980)
Degree Days
Heating Degree Days 36 33  
Month to date heating degree days 988  
Since 1 July heating degree days 3575  
Cooling Degree Days 0 0  
Month to date cooling degree days 0  
Year to date cooling degree days 0  
Moisture
Dew Point 29°F   
Average Humidity 93    
Maximum Humidity 99    
Minimum Humidity 85    
Precipitation
Precipitation 0.00 in 0.02 in 0.25 in (1986)
Month to date precipitation 1.08  
Year to date precipitation 1.08  
Wind
Wind Speed 5 mph   
Max Wind Speed 8 mph   
Max Gust Speed mph   
Visibility 13 miles   
Events     

Key: T is trace of precipitation, MM is missing value
Source: NWS Daily Summary
Time(PST)TemperatureDew PointHumidity Pressure Visibility Wind DirectionWind SpeedGust SpeedPrecipitationEvents Conditions
12:50 AM 27.1°F 26.6°F 98% 29.96 in 12.0 miles WNW 6.9 mph - N/A   Mostly Cloudy
1:50 AM 26.4°F 26.1°F 99% 29.96 in 12.0 miles WNW 5.8 mph - N/A   Scattered Clouds
3:50 AM 28.9°F 28.4°F 98% 29.98 in 12.0 miles NNW 5.8 mph - N/A   Overcast
4:50 AM 29.1°F 28.6°F 98% 29.98 in 12.0 miles NNW 4.6 mph - N/A   Overcast
5:50 AM 29.1°F 28.6°F 98% 29.98 in 12.0 miles NNW 4.6 mph - 0.00 in   Overcast
6:50 AM 25.7°F 25.5°F 99% 29.99 in 12.0 miles South 5.8 mph - N/A   Overcast
7:50 AM 25.7°F 25.5°F 99% 30.00 in 12.0 miles SSE 8.1 mph - N/A   Overcast
8:50 AM 30.0°F 29.7°F 99% 30.00 in 12.0 miles East 2.3 mph - N/A   Overcast
9:50 AM 31.8°F 30.9°F 96% 29.99 in 12.0 miles South 4.6 mph - N/A   Overcast
10:50 AM 33.1°F 31.5°F 94% 29.99 in 12.0 miles ESE 4.6 mph - N/A   Overcast
11:50 AM 34.9°F 31.6°F 88% 29.99 in 12.0 miles NE 3.5 mph - N/A   Overcast
12:50 PM 34.7°F 31.5°F 88% 29.98 in 15.0 miles North 4.6 mph - N/A   Overcast
1:50 PM 34.5°F 30.6°F 85% 29.97 in 15.0 miles North 3.5 mph - N/A   Overcast
2:50 PM 34.5°F 31.3°F 88% 29.97 in 15.0 miles NW 3.5 mph - N/A   Overcast
3:50 PM 33.6°F 30.0°F 87% 29.93 in 15.0 miles WNW 4.6 mph - N/A   Overcast
4:50 PM 32.5°F 30.4°F 92% 29.93 in 15.0 miles NNW 2.3 mph - N/A   Overcast
5:50 PM 31.5°F 29.8°F 94% 29.92 in 15.0 miles NNW 4.6 mph - N/A   Overcast
6:50 PM 32.0°F 30.4°F 94% 29.91 in 15.0 miles West 4.6 mph - N/A   Overcast
10:50 PM 33.3°F 29.8°F 87% 29.92 in 15.0 miles SSW 6.9 mph - N/A   Overcast
11:50 PM 33.4°F 29.5°F 85% 29.92 in 15.0 miles NNE 3.5 mph - N/A   Overcast
Moon Phase
Jan. 28 Feb. 03 Feb. 10 Feb. 17 Feb. 25
Sunrise:07:26 AM (PST) Moon Rise:07:07 PM (PST)1/28
Sunset:04:56 PM (PST) Moon Set:07:45 AM (PST)1/28

Copyright © 2014 The Weather Underground, Inc.